Year,Month,Day,Hour,Minute,Value (Times are PST for windspeed in km/hr)
2014,09,29,00,00,2.10
2014,09,29,00,01,0.40
2014,09,29,00,02,0.30
2014,09,29,00,03,1.70
2014,09,29,00,04,0.50
2014,09,29,00,05,0.10
2014,09,29,00,06,0.30
2014,09,29,00,07,0.20
2014,09,29,00,08,0.30
2014,09,29,00,09,4.70
2014,09,29,00,10,0.30
2014,09,29,00,11,0.30
2014,09,29,00,12,0.00
2014,09,29,00,13,0.20
2014,09,29,00,14,0.00
2014,09,29,00,15,0.00
2014,09,29,00,16,0.00
2014,09,29,00,17,0.00
2014,09,29,00,18,0.70
2014,09,29,00,19,0.00
2014,09,29,00,20,0.10
2014,09,29,00,21,0.00
2014,09,29,00,22,0.00
2014,09,29,00,23,0.00
2014,09,29,00,24,0.30
2014,09,29,00,25,0.00
2014,09,29,00,26,0.00
2014,09,29,00,27,0.10
2014,09,29,00,28,0.40
2014,09,29,00,29,0.30
2014,09,29,00,30,0.10
2014,09,29,00,31,0.10
2014,09,29,00,32,0.00
2014,09,29,00,33,1.10
2014,09,29,00,34,0.00
2014,09,29,00,35,0.00
2014,09,29,00,36,0.00
2014,09,29,00,37,0.00
2014,09,29,00,38,0.00
2014,09,29,00,39,0.00
2014,09,29,00,40,0.00
2014,09,29,00,41,0.00
2014,09,29,00,42,0.00
2014,09,29,00,43,0.00
2014,09,29,00,44,0.30
2014,09,29,00,45,0.20
2014,09,29,00,46,0.00
2014,09,29,00,47,0.00
2014,09,29,00,48,1.40
2014,09,29,00,49,1.80
2014,09,29,00,50,0.80
2014,09,29,00,51,0.00
2014,09,29,00,52,0.00
2014,09,29,00,53,2.90
2014,09,29,00,54,0.80
2014,09,29,00,55,3.00
2014,09,29,00,56,1.20
2014,09,29,00,57,0.00
2014,09,29,00,58,0.00
2014,09,29,00,59,0.00
2014,09,29,01,00,0.00
2014,09,29,01,01,0.00
2014,09,29,01,02,0.00
2014,09,29,01,03,0.00
2014,09,29,01,04,1.30
2014,09,29,01,05,0.70
2014,09,29,01,06,0.30
2014,09,29,01,07,0.00
2014,09,29,01,08,0.80
2014,09,29,01,09,0.60
2014,09,29,01,10,0.10
2014,09,29,01,11,0.20
2014,09,29,01,12,0.30
2014,09,29,01,13,0.20
2014,09,29,01,14,0.00
2014,09,29,01,15,0.80
2014,09,29,01,16,0.20
2014,09,29,01,17,0.90
2014,09,29,01,18,0.70
2014,09,29,01,19,0.20
2014,09,29,01,20,4.10
2014,09,29,01,21,0.10
2014,09,29,01,22,2.00
2014,09,29,01,23,6.90
2014,09,29,01,24,4.30
2014,09,29,01,25,3.10
2014,09,29,01,26,3.60
2014,09,29,01,27,2.60
2014,09,29,01,28,5.10
2014,09,29,01,29,3.60
2014,09,29,01,30,3.30
2014,09,29,01,31,3.80
2014,09,29,01,32,5.80
2014,09,29,01,33,3.00
2014,09,29,01,34,2.80
2014,09,29,01,35,4.10
2014,09,29,01,36,3.50
2014,09,29,01,37,3.40
2014,09,29,01,38,0.20
2014,09,29,01,39,0.90
2014,09,29,01,40,0.50
2014,09,29,01,41,0.50
2014,09,29,01,42,1.80
2014,09,29,01,43,0.60
2014,09,29,01,44,0.50
2014,09,29,01,45,0.00
2014,09,29,01,46,0.00
2014,09,29,01,47,0.00
2014,09,29,01,48,2.60
2014,09,29,01,49,3.60
2014,09,29,01,50,3.40
2014,09,29,01,51,0.80
2014,09,29,01,52,1.00
2014,09,29,01,53,1.00
2014,09,29,01,54,0.20
2014,09,29,01,55,0.70
2014,09,29,01,56,0.30
2014,09,29,01,57,1.90
2014,09,29,01,58,1.90
2014,09,29,01,59,0.10
2014,09,29,02,00,2.20
2014,09,29,02,01,0.40
2014,09,29,02,02,3.90
2014,09,29,02,03,6.40
2014,09,29,02,04,0.00
2014,09,29,02,05,6.00
2014,09,29,02,06,4.00
2014,09,29,02,07,0.00
2014,09,29,02,08,0.00
2014,09,29,02,09,8.40
2014,09,29,02,10,13.50
2014,09,29,02,11,11.90
2014,09,29,02,12,14.00
2014,09,29,02,13,14.00
2014,09,29,02,14,16.20
2014,09,29,02,15,18.30
2014,09,29,02,16,19.20
2014,09,29,02,17,14.20
2014,09,29,02,18,14.90
2014,09,29,02,19,5.80
2014,09,29,02,20,11.30
2014,09,29,02,21,13.50
2014,09,29,02,22,5.70
2014,09,29,02,23,15.90
2014,09,29,02,24,13.60
2014,09,29,02,25,17.50
2014,09,29,02,26,24.80
2014,09,29,02,27,12.50
2014,09,29,02,28,17.70
2014,09,29,02,29,27.90
2014,09,29,02,30,19.50
2014,09,29,02,31,13.00
2014,09,29,02,32,3.70
2014,09,29,02,33,4.40
2014,09,29,02,34,4.50
2014,09,29,02,35,3.40
2014,09,29,02,36,2.70
2014,09,29,02,37,1.90
2014,09,29,02,38,5.60
2014,09,29,02,39,4.90
2014,09,29,02,40,3.90
2014,09,29,02,41,4.30
2014,09,29,02,42,4.50
2014,09,29,02,43,2.10
2014,09,29,02,44,4.00
2014,09,29,02,45,4.70
2014,09,29,02,46,3.30
2014,09,29,02,47,5.70
2014,09,29,02,48,7.70
2014,09,29,02,49,10.50
2014,09,29,02,50,16.50
2014,09,29,02,51,2.50
2014,09,29,02,52,7.50
2014,09,29,02,53,0.60
2014,09,29,02,54,9.20
2014,09,29,02,55,12.80
2014,09,29,02,56,5.80
2014,09,29,02,57,5.80
2014,09,29,02,58,13.70
2014,09,29,02,59,10.50
2014,09,29,03,00,2.00
2014,09,29,03,01,5.20
2014,09,29,03,02,0.10
2014,09,29,03,03,0.40
2014,09,29,03,04,0.80
2014,09,29,03,05,0.20
2014,09,29,03,06,4.30
2014,09,29,03,07,4.30
2014,09,29,03,08,1.20
2014,09,29,03,09,6.60
2014,09,29,03,10,0.00
2014,09,29,03,11,0.00
2014,09,29,03,12,0.90
2014,09,29,03,13,2.20
2014,09,29,03,14,0.90
2014,09,29,03,15,10.00
2014,09,29,03,16,1.20
2014,09,29,03,17,0.00
2014,09,29,03,18,3.20
2014,09,29,03,19,4.30
2014,09,29,03,20,2.40
2014,09,29,03,21,0.10
2014,09,29,03,22,5.40
2014,09,29,03,23,2.90
2014,09,29,03,24,2.70
2014,09,29,03,25,5.30
2014,09,29,03,26,5.00
2014,09,29,03,27,5.60
2014,09,29,03,28,6.50
2014,09,29,03,29,5.10
2014,09,29,03,30,2.80
2014,09,29,03,31,0.70
2014,09,29,03,32,3.70
2014,09,29,03,33,3.60
2014,09,29,03,34,1.80
2014,09,29,03,35,3.00
2014,09,29,03,36,4.20
2014,09,29,03,37,0.70
2014,09,29,03,38,3.80
2014,09,29,03,39,1.40
2014,09,29,03,40,5.80
2014,09,29,03,41,6.90
2014,09,29,03,42,1.10
2014,09,29,03,43,3.00
2014,09,29,03,44,2.40
2014,09,29,03,45,2.40
2014,09,29,03,46,3.10
2014,09,29,03,47,0.20
2014,09,29,03,48,0.00
2014,09,29,03,49,0.00
2014,09,29,03,50,0.20
2014,09,29,03,51,0.00
2014,09,29,03,52,0.00
2014,09,29,03,53,0.00
2014,09,29,03,54,0.00
2014,09,29,03,55,1.20
2014,09,29,03,56,0.30
2014,09,29,03,57,0.10
2014,09,29,03,58,0.00
2014,09,29,03,59,5.30
2014,09,29,04,00,2.00
2014,09,29,04,01,1.10
2014,09,29,04,02,0.00
2014,09,29,04,03,0.00
2014,09,29,04,04,2.10
2014,09,29,04,05,0.30
2014,09,29,04,06,0.40
2014,09,29,04,07,0.00
2014,09,29,04,08,1.10
2014,09,29,04,09,3.20
2014,09,29,04,10,0.20
2014,09,29,04,11,0.10
2014,09,29,04,12,0.00
2014,09,29,04,13,0.00
2014,09,29,04,14,0.00
2014,09,29,04,15,0.00
2014,09,29,04,16,0.00
2014,09,29,04,17,0.00
2014,09,29,04,18,0.00
2014,09,29,04,19,0.00
2014,09,29,04,20,0.00
2014,09,29,04,21,0.00
2014,09,29,04,22,0.00
2014,09,29,04,23,0.00
2014,09,29,04,24,0.00
2014,09,29,04,25,2.80
2014,09,29,04,26,0.00
2014,09,29,04,27,2.90
2014,09,29,04,28,3.10
2014,09,29,04,29,1.50
2014,09,29,04,30,0.00
2014,09,29,04,31,3.80
2014,09,29,04,32,3.00
2014,09,29,04,33,9.20
2014,09,29,04,34,3.20
2014,09,29,04,35,2.30
2014,09,29,04,36,5.30
2014,09,29,04,37,1.60
2014,09,29,04,38,0.20
2014,09,29,04,39,2.90
2014,09,29,04,40,3.90
2014,09,29,04,41,5.40
2014,09,29,04,42,3.00
2014,09,29,04,43,0.60
2014,09,29,04,44,4.10
2014,09,29,04,45,0.00
2014,09,29,04,46,1.90
2014,09,29,04,47,4.80
2014,09,29,04,48,1.50
2014,09,29,04,49,4.80
2014,09,29,04,50,2.00
2014,09,29,04,51,0.00
2014,09,29,04,52,0.10
2014,09,29,04,53,0.00
2014,09,29,04,54,0.00
2014,09,29,04,55,0.00
2014,09,29,04,56,0.00
2014,09,29,04,57,0.00
2014,09,29,04,58,0.00
2014,09,29,04,59,0.00
2014,09,29,05,00,0.00
2014,09,29,05,01,0.00
2014,09,29,05,02,0.00
2014,09,29,05,03,0.00
2014,09,29,05,04,0.00
2014,09,29,05,05,4.20
2014,09,29,05,06,2.60
2014,09,29,05,07,0.50
2014,09,29,05,08,2.40
2014,09,29,05,09,6.40
2014,09,29,05,10,1.40
2014,09,29,05,11,8.10
2014,09,29,05,12,2.80
2014,09,29,05,13,1.90
2014,09,29,05,14,2.70
2014,09,29,05,15,0.00
2014,09,29,05,16,0.90
2014,09,29,05,17,5.00
2014,09,29,05,18,7.40
2014,09,29,05,19,4.60
2014,09,29,05,20,4.40
2014,09,29,05,21,6.60
2014,09,29,05,22,7.70
2014,09,29,05,23,5.30
2014,09,29,05,24,6.90
2014,09,29,05,25,3.00
2014,09,29,05,26,5.70
2014,09,29,05,27,1.80
2014,09,29,05,28,3.10
2014,09,29,05,29,3.00
2014,09,29,05,30,4.50
2014,09,29,05,31,4.00
2014,09,29,05,32,7.50
2014,09,29,05,33,10.90
2014,09,29,05,34,11.00
2014,09,29,05,35,19.40
2014,09,29,05,36,13.70
2014,09,29,05,37,6.60
2014,09,29,05,38,4.80
2014,09,29,05,39,0.70
2014,09,29,05,40,5.30
2014,09,29,05,41,11.30
2014,09,29,05,42,6.90
2014,09,29,05,43,10.50
2014,09,29,05,44,21.40
2014,09,29,05,45,20.00
2014,09,29,05,46,15.40
2014,09,29,05,47,15.90
2014,09,29,05,48,9.10
2014,09,29,05,49,14.90
2014,09,29,05,50,22.40
2014,09,29,05,51,4.80
2014,09,29,05,52,7.30
2014,09,29,05,53,7.40
2014,09,29,05,54,4.70
2014,09,29,05,55,5.40
2014,09,29,05,56,13.20
2014,09,29,05,57,3.70
2014,09,29,05,58,5.20
2014,09,29,05,59,5.50
2014,09,29,06,00,7.70
2014,09,29,06,01,4.80
2014,09,29,06,02,1.40
2014,09,29,06,03,6.20
2014,09,29,06,04,1.50
2014,09,29,06,05,4.50
2014,09,29,06,06,6.30
2014,09,29,06,07,9.70
2014,09,29,06,08,5.40
2014,09,29,06,09,5.20
2014,09,29,06,10,6.20
2014,09,29,06,11,10.20
2014,09,29,06,12,14.70
2014,09,29,06,13,5.20
2014,09,29,06,14,2.50
2014,09,29,06,15,4.60
2014,09,29,06,16,3.30
2014,09,29,06,17,4.50
2014,09,29,06,18,8.10
2014,09,29,06,19,3.80
2014,09,29,06,20,4.20
2014,09,29,06,21,7.00
2014,09,29,06,22,2.90
2014,09,29,06,23,7.50
2014,09,29,06,24,7.30
2014,09,29,06,25,5.30
2014,09,29,06,26,8.60
2014,09,29,06,27,10.60
2014,09,29,06,28,10.20
2014,09,29,06,29,7.10
2014,09,29,06,30,0.00
2014,09,29,06,31,1.70
2014,09,29,06,32,9.60
2014,09,29,06,33,8.00
2014,09,29,06,34,7.90
2014,09,29,06,35,6.90
2014,09,29,06,36,9.00
2014,09,29,06,37,12.80
2014,09,29,06,38,10.10
2014,09,29,06,39,8.60
2014,09,29,06,40,11.80
2014,09,29,06,41,10.30
2014,09,29,06,42,13.80
2014,09,29,06,43,8.60
2014,09,29,06,44,15.40
2014,09,29,06,45,7.90
2014,09,29,06,46,8.30
2014,09,29,06,47,4.30
2014,09,29,06,48,7.80
2014,09,29,06,49,6.80
2014,09,29,06,50,6.60
2014,09,29,06,51,7.30
2014,09,29,06,52,6.30
2014,09,29,06,53,5.90
2014,09,29,06,54,7.00
2014,09,29,06,55,13.00
2014,09,29,06,56,10.80
2014,09,29,06,57,9.20
2014,09,29,06,58,8.50
2014,09,29,06,59,4.70
2014,09,29,07,00,10.80
2014,09,29,07,01,13.40
2014,09,29,07,02,9.60
2014,09,29,07,03,10.50
2014,09,29,07,04,6.00
2014,09,29,07,05,6.20
2014,09,29,07,06,5.40
2014,09,29,07,07,9.30
2014,09,29,07,08,10.60
2014,09,29,07,09,9.70
2014,09,29,07,10,7.60
2014,09,29,07,11,8.40
2014,09,29,07,12,21.50
2014,09,29,07,13,14.90
2014,09,29,07,14,10.80
2014,09,29,07,15,9.50
2014,09,29,07,16,7.50
2014,09,29,07,17,9.40
2014,09,29,07,18,6.00
2014,09,29,07,19,5.60
2014,09,29,07,20,10.20
2014,09,29,07,21,10.10
2014,09,29,07,22,8.50
2014,09,29,07,23,10.10
2014,09,29,07,24,8.10
2014,09,29,07,25,10.10
2014,09,29,07,26,6.70
2014,09,29,07,27,10.30
2014,09,29,07,28,48.70
2014,09,29,07,29,38.00
2014,09,29,07,30,32.60
2014,09,29,07,31,28.20
2014,09,29,07,32,12.00
2014,09,29,07,33,8.20
2014,09,29,07,34,9.80
2014,09,29,07,35,7.60
2014,09,29,07,36,10.10
2014,09,29,07,37,9.50
2014,09,29,07,38,8.50
2014,09,29,07,39,4.10
2014,09,29,07,40,6.90
2014,09,29,07,41,6.60
2014,09,29,07,42,6.10
2014,09,29,07,43,8.90
2014,09,29,07,44,7.50
2014,09,29,07,45,4.30
2014,09,29,07,46,8.60
2014,09,29,07,47,11.50
2014,09,29,07,48,10.10
2014,09,29,07,49,7.50
2014,09,29,07,50,8.40
2014,09,29,07,51,13.40
2014,09,29,07,52,8.00
2014,09,29,07,53,7.30
2014,09,29,07,54,11.90
2014,09,29,07,55,9.90
2014,09,29,07,56,10.90
2014,09,29,07,57,8.50
2014,09,29,07,58,12.10
2014,09,29,07,59,16.50
2014,09,29,08,00,24.50
2014,09,29,08,01,17.80
2014,09,29,08,02,12.70
2014,09,29,08,03,14.10
2014,09,29,08,04,6.10
2014,09,29,08,05,14.60
2014,09,29,08,06,5.90
2014,09,29,08,07,7.90
2014,09,29,08,08,16.40
2014,09,29,08,09,20.00
2014,09,29,08,10,15.90
2014,09,29,08,11,10.70
2014,09,29,08,12,7.80
2014,09,29,08,13,9.50
2014,09,29,08,14,8.00
2014,09,29,08,15,6.10
2014,09,29,08,16,7.20
2014,09,29,08,17,10.00
2014,09,29,08,18,7.10
2014,09,29,08,19,3.40
2014,09,29,08,20,0.00
2014,09,29,08,21,0.00
2014,09,29,08,22,0.30
2014,09,29,08,23,1.80
2014,09,29,08,24,0.10
2014,09,29,08,25,0.00
2014,09,29,08,26,1.90
2014,09,29,08,27,7.10
2014,09,29,08,28,5.50
2014,09,29,08,29,3.00
2014,09,29,08,30,2.00
2014,09,29,08,31,1.50
2014,09,29,08,32,5.60
2014,09,29,08,33,12.20
2014,09,29,08,34,5.60
2014,09,29,08,35,4.60
2014,09,29,08,36,6.60
2014,09,29,08,37,1.60
2014,09,29,08,38,9.30
2014,09,29,08,39,8.00
2014,09,29,08,40,8.40
2014,09,29,08,41,7.50
2014,09,29,08,42,3.30
2014,09,29,08,43,3.20
2014,09,29,08,44,2.70
2014,09,29,08,45,3.30
2014,09,29,08,46,0.00
2014,09,29,08,47,6.80
2014,09,29,08,48,12.50
2014,09,29,08,49,10.20
2014,09,29,08,50,13.60
2014,09,29,08,51,8.10
2014,09,29,08,52,8.30
2014,09,29,08,53,4.50
2014,09,29,08,54,14.80
2014,09,29,08,55,25.60
2014,09,29,08,56,14.80
2014,09,29,08,57,5.50
2014,09,29,08,58,5.90
2014,09,29,08,59,9.60
2014,09,29,09,00,4.80
2014,09,29,09,01,0.80
2014,09,29,09,02,2.90
2014,09,29,09,03,2.50
2014,09,29,09,04,12.40
2014,09,29,09,05,4.60
2014,09,29,09,06,9.60
2014,09,29,09,07,11.50
2014,09,29,09,08,8.10
2014,09,29,09,09,7.20
2014,09,29,09,10,13.20
2014,09,29,09,11,2.30
2014,09,29,09,12,12.20
2014,09,29,09,13,9.50
2014,09,29,09,14,5.60
2014,09,29,09,15,10.40
2014,09,29,09,16,11.00
2014,09,29,09,17,10.00
2014,09,29,09,18,6.00
2014,09,29,09,19,0.00
2014,09,29,09,20,0.00
2014,09,29,09,21,0.00
2014,09,29,09,22,0.00
2014,09,29,09,23,0.00
2014,09,29,09,24,0.40
2014,09,29,09,25,0.80
2014,09,29,09,26,0.20
2014,09,29,09,27,0.30
2014,09,29,09,28,0.00
2014,09,29,09,29,0.90
2014,09,29,09,30,11.10
2014,09,29,09,31,7.20
2014,09,29,09,32,13.80
2014,09,29,09,33,6.10
2014,09,29,09,34,6.10
2014,09,29,09,35,8.20
2014,09,29,09,36,1.40
2014,09,29,09,37,6.80
2014,09,29,09,38,2.80
2014,09,29,09,39,0.30
2014,09,29,09,40,0.00
2014,09,29,09,41,0.00
2014,09,29,09,42,0.00
2014,09,29,09,43,0.00
2014,09,29,09,44,0.00
2014,09,29,09,45,0.00
2014,09,29,09,46,0.00
2014,09,29,09,47,0.00
2014,09,29,09,48,0.00
2014,09,29,09,49,0.00
2014,09,29,09,50,3.10
2014,09,29,09,51,0.80
2014,09,29,09,52,1.50
2014,09,29,09,53,0.00
2014,09,29,09,54,2.40
2014,09,29,09,55,4.70
2014,09,29,09,56,2.60
2014,09,29,09,57,1.00
2014,09,29,09,58,0.30
2014,09,29,09,59,10.00
2014,09,29,10,00,6.70
2014,09,29,10,01,7.00
2014,09,29,10,02,27.40
2014,09,29,10,03,33.90
2014,09,29,10,04,46.60
2014,09,29,10,05,31.80
2014,09,29,10,06,29.20
2014,09,29,10,07,0.00
2014,09,29,10,08,0.90
2014,09,29,10,09,23.10
2014,09,29,10,10,0.30
2014,09,29,10,11,0.00
2014,09,29,10,12,0.00
2014,09,29,10,13,0.00
2014,09,29,10,14,0.00
2014,09,29,10,15,0.00
2014,09,29,10,16,0.00
2014,09,29,10,17,0.00
2014,09,29,10,18,0.00
2014,09,29,10,19,0.00
2014,09,29,10,20,0.00
2014,09,29,10,21,0.00
2014,09,29,10,22,0.00
2014,09,29,10,23,1.90
2014,09,29,10,24,6.50
2014,09,29,10,25,15.60
2014,09,29,10,26,11.90
2014,09,29,10,27,8.70
2014,09,29,10,28,0.60
2014,09,29,10,29,0.00
2014,09,29,10,30,0.00
2014,09,29,10,31,0.00
2014,09,29,10,32,0.00
2014,09,29,10,33,0.00
2014,09,29,10,34,0.00
2014,09,29,10,35,0.00
2014,09,29,10,36,6.20
2014,09,29,10,37,34.60
2014,09,29,10,38,9.00
2014,09,29,10,39,28.00
2014,09,29,10,40,36.90
2014,09,29,10,41,52.00
2014,09,29,10,42,40.20
2014,09,29,10,43,32.50
2014,09,29,10,44,24.40
2014,09,29,10,45,30.70
2014,09,29,10,46,25.80
2014,09,29,10,47,46.80
2014,09,29,10,48,43.80
2014,09,29,10,49,31.10
2014,09,29,10,50,14.80
2014,09,29,10,51,9.20
2014,09,29,10,52,23.60
2014,09,29,10,53,14.30
2014,09,29,10,54,21.00
2014,09,29,10,55,25.60
2014,09,29,10,56,42.70
2014,09,29,10,57,42.90
2014,09,29,10,58,36.90
2014,09,29,10,59,34.20
2014,09,29,11,00,57.50
2014,09,29,11,01,35.50
2014,09,29,11,02,37.70
2014,09,29,11,03,15.40
2014,09,29,11,04,13.20
2014,09,29,11,05,18.10
2014,09,29,11,06,10.90
2014,09,29,11,07,24.10
2014,09,29,11,08,44.70
2014,09,29,11,09,32.10
2014,09,29,11,10,27.00
2014,09,29,11,11,36.80
2014,09,29,11,12,16.70
2014,09,29,11,13,0.00
2014,09,29,11,14,0.00
2014,09,29,11,15,0.00
2014,09,29,11,16,0.00
2014,09,29,11,17,0.00
2014,09,29,11,18,0.00
2014,09,29,11,19,0.00
2014,09,29,11,20,0.00
2014,09,29,11,21,0.00
2014,09,29,11,22,0.00
2014,09,29,11,23,0.00
2014,09,29,11,24,0.00
2014,09,29,11,25,0.00
2014,09,29,11,26,0.00
2014,09,29,11,27,0.00
2014,09,29,11,28,0.00
2014,09,29,11,29,0.00
2014,09,29,11,30,0.00
2014,09,29,11,31,0.00
2014,09,29,11,32,0.00
2014,09,29,11,33,0.00
2014,09,29,11,34,0.00
2014,09,29,11,35,0.00
2014,09,29,11,36,0.00
2014,09,29,11,37,7.80
2014,09,29,11,38,6.80
2014,09,29,11,39,10.40
2014,09,29,11,40,8.00
2014,09,29,11,41,5.40
2014,09,29,11,42,8.40
2014,09,29,11,43,7.50
2014,09,29,11,44,6.30
2014,09,29,11,45,5.30
2014,09,29,11,46,0.00
2014,09,29,11,47,0.00
2014,09,29,11,48,0.00
2014,09,29,11,49,0.00
2014,09,29,11,50,0.00
2014,09,29,11,51,0.00
2014,09,29,11,52,0.00
2014,09,29,11,53,0.00
2014,09,29,11,54,0.00
2014,09,29,11,55,0.00
2014,09,29,11,56,0.00
2014,09,29,11,57,0.00
2014,09,29,11,58,0.00
2014,09,29,11,59,0.00
2014,09,29,12,00,0.00
2014,09,29,12,01,0.00
2014,09,29,12,02,0.00
2014,09,29,12,03,0.00
2014,09,29,12,04,0.00
2014,09,29,12,05,0.00
2014,09,29,12,06,0.00
2014,09,29,12,07,0.00
2014,09,29,12,08,0.00
2014,09,29,12,09,0.30
2014,09,29,12,10,0.00
2014,09,29,12,11,0.10
2014,09,29,12,12,0.00
2014,09,29,12,13,6.60
2014,09,29,12,14,6.50
2014,09,29,12,15,5.40
2014,09,29,12,16,6.80
2014,09,29,12,17,6.50
2014,09,29,12,18,2.40
2014,09,29,12,19,8.50
2014,09,29,12,20,1.50
2014,09,29,12,21,0.10
2014,09,29,12,22,2.30
2014,09,29,12,23,1.70
2014,09,29,12,24,2.70
2014,09,29,12,25,8.00
2014,09,29,12,26,10.90
2014,09,29,12,27,7.50
2014,09,29,12,28,8.30
2014,09,29,12,29,9.50
2014,09,29,12,30,1.90
2014,09,29,12,31,0.00
2014,09,29,12,32,0.20
2014,09,29,12,33,2.70
2014,09,29,12,34,1.40
2014,09,29,12,35,0.30
2014,09,29,12,36,3.60
2014,09,29,12,37,1.90
2014,09,29,12,38,3.00
2014,09,29,12,39,0.10
2014,09,29,12,40,8.10
2014,09,29,12,41,3.40
2014,09,29,12,42,1.30
2014,09,29,12,43,3.30
2014,09,29,12,44,4.20
2014,09,29,12,45,3.60
2014,09,29,12,46,2.70
2014,09,29,12,47,0.90
2014,09,29,12,48,2.80
2014,09,29,12,49,7.60
2014,09,29,12,50,1.10
2014,09,29,12,51,0.80
2014,09,29,12,52,1.40
2014,09,29,12,53,0.20
2014,09,29,12,54,6.30
2014,09,29,12,55,7.70
2014,09,29,12,56,2.00
2014,09,29,12,57,0.80
2014,09,29,12,58,1.80
2014,09,29,12,59,1.10
2014,09,29,13,00,1.40
2014,09,29,13,01,4.70
2014,09,29,13,02,4.90
2014,09,29,13,03,0.00
2014,09,29,13,04,0.00
2014,09,29,13,05,0.00
2014,09,29,13,06,0.00
2014,09,29,13,07,0.00
2014,09,29,13,08,0.00
2014,09,29,13,09,0.00
2014,09,29,13,10,0.00
2014,09,29,13,11,0.00
2014,09,29,13,12,0.00
2014,09,29,13,13,0.00
2014,09,29,13,14,0.00
2014,09,29,13,15,0.00
2014,09,29,13,16,0.00
2014,09,29,13,17,0.00
2014,09,29,13,18,0.00
2014,09,29,13,19,0.00
2014,09,29,13,20,0.00
2014,09,29,13,21,0.10
2014,09,29,13,22,0.40
2014,09,29,13,23,0.20
2014,09,29,13,24,0.00
2014,09,29,13,25,0.00
2014,09,29,13,26,0.00
2014,09,29,13,27,8.60
2014,09,29,13,28,5.50
2014,09,29,13,29,4.30
2014,09,29,13,30,8.00
2014,09,29,13,31,3.60
2014,09,29,13,32,0.00
2014,09,29,13,33,0.00
2014,09,29,13,34,0.00
2014,09,29,13,35,2.60
2014,09,29,13,36,4.30
2014,09,29,13,37,9.00
2014,09,29,13,38,7.10
2014,09,29,13,39,6.90
2014,09,29,13,40,6.90
2014,09,29,13,41,1.30
2014,09,29,13,42,3.30
2014,09,29,13,43,5.50
2014,09,29,13,44,8.50
2014,09,29,13,45,10.10
2014,09,29,13,46,8.90
2014,09,29,13,47,3.60
2014,09,29,13,48,9.60
2014,09,29,13,49,12.30
2014,09,29,13,50,9.50
2014,09,29,13,51,5.60
2014,09,29,13,52,6.20
2014,09,29,13,53,4.50
2014,09,29,13,54,0.30
2014,09,29,13,55,6.30
2014,09,29,13,56,13.70
2014,09,29,13,57,8.90
2014,09,29,13,58,5.70
2014,09,29,13,59,3.40
2014,09,29,14,00,5.60
2014,09,29,14,01,0.70
2014,09,29,14,02,0.30
2014,09,29,14,03,0.60
2014,09,29,14,04,3.80
2014,09,29,14,05,3.00
2014,09,29,14,06,6.90
2014,09,29,14,07,5.80
2014,09,29,14,08,2.50
2014,09,29,14,09,2.20
2014,09,29,14,10,1.30
2014,09,29,14,11,2.30
2014,09,29,14,12,1.80
2014,09,29,14,13,2.70
2014,09,29,14,14,3.00
2014,09,29,14,15,2.40
2014,09,29,14,16,2.00
2014,09,29,14,17,3.30
2014,09,29,14,18,6.90
2014,09,29,14,19,0.20
2014,09,29,14,20,0.00
2014,09,29,14,21,0.90
2014,09,29,14,22,1.60
2014,09,29,14,23,6.90
2014,09,29,14,24,4.20
2014,09,29,14,25,13.00
2014,09,29,14,26,10.30
2014,09,29,14,27,2.50
2014,09,29,14,28,4.40
2014,09,29,14,29,1.80
2014,09,29,14,30,3.30
2014,09,29,14,31,14.80
2014,09,29,14,32,11.40
2014,09,29,14,33,10.10
2014,09,29,14,34,9.90
2014,09,29,14,35,6.20
2014,09,29,14,36,0.00
2014,09,29,14,37,0.30
2014,09,29,14,38,0.00
2014,09,29,14,39,0.90
2014,09,29,14,40,2.80
2014,09,29,14,41,3.40
2014,09,29,14,42,2.70
2014,09,29,14,43,1.40
2014,09,29,14,44,6.60
2014,09,29,14,45,5.50
2014,09,29,14,46,18.30
2014,09,29,14,47,29.70
2014,09,29,14,48,24.60
2014,09,29,14,49,24.20
2014,09,29,14,50,8.30
2014,09,29,14,51,1.40
2014,09,29,14,52,0.20
2014,09,29,14,53,2.00
2014,09,29,14,54,8.60
2014,09,29,14,55,4.20
2014,09,29,14,56,3.00
2014,09,29,14,57,3.00
2014,09,29,14,58,2.90
2014,09,29,14,59,2.60
2014,09,29,15,00,3.90
2014,09,29,15,01,0.20
2014,09,29,15,02,4.10
2014,09,29,15,03,12.60
2014,09,29,15,04,5.50
2014,09,29,15,05,3.30
2014,09,29,15,06,2.50
2014,09,29,15,07,10.80
2014,09,29,15,08,4.70
2014,09,29,15,09,0.30
2014,09,29,15,10,2.10
2014,09,29,15,11,4.00
2014,09,29,15,12,6.00
2014,09,29,15,13,3.90
2014,09,29,15,14,3.10
2014,09,29,15,15,0.30
2014,09,29,15,16,0.00
2014,09,29,15,17,0.20
2014,09,29,15,18,0.20
2014,09,29,15,19,1.40
2014,09,29,15,20,8.00
2014,09,29,15,21,4.90
2014,09,29,15,22,7.50
2014,09,29,15,23,0.20
2014,09,29,15,24,0.00
2014,09,29,15,25,0.00
2014,09,29,15,26,0.00
2014,09,29,15,27,0.00
2014,09,29,15,28,0.00
2014,09,29,15,29,0.00
2014,09,29,15,30,0.30
2014,09,29,15,31,0.20
2014,09,29,15,32,1.80
2014,09,29,15,33,3.50
2014,09,29,15,34,1.40
2014,09,29,15,35,0.00
2014,09,29,15,36,0.60
2014,09,29,15,37,0.80
2014,09,29,15,38,0.00
2014,09,29,15,39,1.90
2014,09,29,15,40,3.60
2014,09,29,15,41,3.80
2014,09,29,15,42,2.30
2014,09,29,15,43,10.70
2014,09,29,15,44,8.40
2014,09,29,15,45,3.60
2014,09,29,15,46,2.10
2014,09,29,15,47,0.10
2014,09,29,15,48,0.00
2014,09,29,15,49,2.10
2014,09,29,15,50,1.60
2014,09,29,15,51,1.40
2014,09,29,15,52,0.00
2014,09,29,15,53,0.00
2014,09,29,15,54,0.10
2014,09,29,15,55,0.90
2014,09,29,15,56,0.60
2014,09,29,15,57,0.10
2014,09,29,15,58,0.10
2014,09,29,15,59,1.80
2014,09,29,16,00,3.60
2014,09,29,16,01,0.10
2014,09,29,16,02,0.10
2014,09,29,16,03,0.50
2014,09,29,16,04,0.00
2014,09,29,16,05,0.00
2014,09,29,16,06,0.00
2014,09,29,16,07,0.00
2014,09,29,16,08,0.10
2014,09,29,16,09,0.30
2014,09,29,16,10,0.00
2014,09,29,16,11,0.70
2014,09,29,16,12,1.10
2014,09,29,16,13,1.90
2014,09,29,16,14,2.60
2014,09,29,16,15,3.70
2014,09,29,16,16,1.00
2014,09,29,16,17,0.30
2014,09,29,16,18,0.70
2014,09,29,16,19,1.30
2014,09,29,16,20,1.50
2014,09,29,16,21,2.70
2014,09,29,16,22,0.60
2014,09,29,16,23,0.80
2014,09,29,16,24,1.70
2014,09,29,16,25,0.10
2014,09,29,16,26,0.30
2014,09,29,16,27,0.10
2014,09,29,16,28,0.30
2014,09,29,16,29,0.20
2014,09,29,16,30,1.70
2014,09,29,16,31,0.20
2014,09,29,16,32,0.10
2014,09,29,16,33,0.10
2014,09,29,16,34,0.00
2014,09,29,16,35,0.00
2014,09,29,16,36,0.60
2014,09,29,16,37,0.20
2014,09,29,16,38,0.10
2014,09,29,16,39,1.50
2014,09,29,16,40,1.70
2014,09,29,16,41,0.10
2014,09,29,16,42,0.70
2014,09,29,16,43,0.70
2014,09,29,16,44,0.30
2014,09,29,16,45,0.70
2014,09,29,16,46,2.00
2014,09,29,16,47,0.00
2014,09,29,16,48,0.90
2014,09,29,16,49,0.00
2014,09,29,16,50,0.30
2014,09,29,16,51,0.20
2014,09,29,16,52,0.00
2014,09,29,16,53,0.10
2014,09,29,16,54,0.00
2014,09,29,16,55,0.00
2014,09,29,16,56,0.00
2014,09,29,16,57,0.00
2014,09,29,16,58,0.20
2014,09,29,16,59,0.00
2014,09,29,17,00,0.20
2014,09,29,17,01,0.00
2014,09,29,17,02,0.00
2014,09,29,17,03,0.00
2014,09,29,17,04,0.00
2014,09,29,17,05,0.00
2014,09,29,17,06,0.00
2014,09,29,17,07,1.30
2014,09,29,17,08,0.00
2014,09,29,17,09,0.20
2014,09,29,17,10,0.00
2014,09,29,17,11,0.30
2014,09,29,17,12,0.00
2014,09,29,17,13,0.00
2014,09,29,17,14,0.00
2014,09,29,17,15,2.10
2014,09,29,17,16,0.00
2014,09,29,17,17,0.00
2014,09,29,17,18,1.50
2014,09,29,17,19,0.00
2014,09,29,17,20,0.00
2014,09,29,17,21,0.10
2014,09,29,17,22,0.50
2014,09,29,17,23,0.00
2014,09,29,17,24,2.30
2014,09,29,17,25,0.70
2014,09,29,17,26,2.30
2014,09,29,17,27,0.50
2014,09,29,17,28,0.00
2014,09,29,17,29,0.70
2014,09,29,17,30,0.00
2014,09,29,17,31,1.00
2014,09,29,17,32,0.00
2014,09,29,17,33,1.40
2014,09,29,17,34,0.90
2014,09,29,17,35,0.00
2014,09,29,17,36,0.90
2014,09,29,17,37,0.40
2014,09,29,17,38,0.50
2014,09,29,17,39,0.00
2014,09,29,17,40,0.90
2014,09,29,17,41,0.00
2014,09,29,17,42,0.00
2014,09,29,17,43,3.50
2014,09,29,17,44,6.10
2014,09,29,17,45,2.50
2014,09,29,17,46,0.30
2014,09,29,17,47,0.00
2014,09,29,17,48,0.00
2014,09,29,17,49,0.00
2014,09,29,17,50,0.00
2014,09,29,17,51,0.20
2014,09,29,17,52,0.10
2014,09,29,17,53,0.60
2014,09,29,17,54,2.70
2014,09,29,17,55,2.70
2014,09,29,17,56,3.00
2014,09,29,17,57,0.20
2014,09,29,17,58,0.30
2014,09,29,17,59,2.00